星链-3899 (STARLINK-3899 )

导读

STARLINK-3899是美国SpaceX公司星链(Starlink)低轨卫星互联网星座的成员,于2022年5月6日由猎鹰9号运载火箭发射升空。作为星链星座组网的一部分,它运行在近地轨道,配备霍尔推进器与高通量天线,主要为全球偏远欠发达地区提供高速低延迟的卫星互联网接入服务,推动实现全球网络覆盖。

Basic Information
目录编号:
52457
目录名称:
STARLINK-3899
国际标识:
2022-049G
轨道中心:
EARTH
卫星名称:
星链-3899
卫星全名:
星链-3899 (STARLINK-3899 )
卫星状态:
在轨 (已飞行1589 天)
发射日期:
2022-05-06 UTC
国别 :
美国 (US)
星等 :
--
This satellite is enrolled in the Space Conjunction Data Service (SCDS) and the current flight risk assessment level is: No High Risk
Orbit Information
数据来源 国际轨道数据
星历时间: 2026-09-11T14:00:02+0800
9小时前
查看轨道信息
半长轴: 6859.223km
偏心率: 0.0001462
轨道倾角: 53.159°
近地点辐角 85.278°
升交点赤经 313.212°
平近点角 107.065°
近地点: 480.083km
远地点: 482.089km
周期: 94.226分钟
每日圈数: 15.282361
Detailed Information
固有亮度:
5
最大亮度:
2.5
卫星平台:
Starlink v1.5
覆盖范围:
全球
运营商:
太空探索技术公司
运营商所在国:
美国
制造商(研发单位):
太空探索技术公司
制造商所在国:
美国
使用方式:
暂无
Satellite Introduction
星链(Starlink)计划是由太空探索技术公司(SpaceX)提出的一个巨型低轨卫星互联网星座项目,计划在2019年至2024年间在太空搭建由约1.2万颗卫星组成的“星链”网络,其中1584颗将部署在地球上空550千米处的近地轨道,并从2020年开始工作。该卫星仍在工作。
2D Orbit Map
3D Orbit Map
Orbit Altitude Analysis Chart
Orbit Inclination Analysis Chart
Orbit Comprehensive Analysis Chart
View Comprehensive Chart
Conjunction Data List
Event ID Objects TCA Miss Dist (km) Collision Risk Probability Collision Risk Index (CRI) Action
CDM_260913-204905-245705-964421
2026-09-13T
20:49:41+0000
0.156 km
中距离
8.871936E-4 高风险 0.94
CDM_260914-064205-245705-749821
2026-09-14T
06:42:53+0000
0.345 km
远距离
3.11603E-4 高风险 0.85
CDM_260912-022405-245706-651821
2026-09-12T
02:24:44+0000
0.234 km
中距离
2.915855E-4 高风险 0.84
CDM_260912-071805-245706-734621
2026-09-12T
07:18:40+0000
0.701 km
远距离
4.322242E-5 中风险 0.68
CDM_260912-054405-245706-734621
2026-09-12T
05:44:30+0000
1.062 km
极远距离
1.081289E-5 中风险 0.56
CDM_260912-132905-245705-610221
2026-09-12T
13:29:41+0000
1.212 km
极远距离
1.048499E-5 中风险 0.55
CDM_260912-150005-245705-483121
2026-09-12T
15:00:09+0000
1.352 km
极远距离
7.680766E-6 低风险 0.53
CDM_260913-112505-245705-613321
2026-09-13T
11:25:51+0000
1.384 km
极远距离
6.962356E-6 低风险 0.52
CDM_260912-115505-245705-610221
2026-09-12T
11:55:31+0000
1.376 km
极远距离
6.786097E-6 低风险 0.52
CDM_260913-024605-245705-483121
2026-09-13T
02:46:23+0000
1.632 km
极远距离
4.176926E-6 低风险 0.47
Miss Distance Evolution Trend with All Objects
Collision Probability Evolution Trend with All Objects